Temp
-10 -10 -10 -10 -10 -10 -10 -10 -10 -10 -10 -10 -10 -10 -10 -10 -11 -11 -11 -11 -11 -11 -11 -12 -12 -12 -13 -13 -13 -13 -13 -13 -13 -13 -13 -14 -13 -13 -13 -13 -13 -13 -13
-11 -11 -11 -11 -10 -10 -10 -10 -10 -10 -10 -10 -10 -10 -10 -10 -10 -11 -11 -11 -11 -11 -11 -12 -12 -12 -13 -13 -13 -13 -14 -14 -14 -13 -13 -13 -13 -13 -14 -13 -13 -13 -13
-11 -11 -11 -11 -11 -11 -11 -11 -11 -11 -11 -11 -11 -11 -11 -11 -11 -11 -11 -12 -12 -12 -12 -12 -12 -13 -13 -13 -13 -13 -14 -14 -14 -13 -13 -13 -13 -13 -13 -13 -13 -13 -13
-11 -11 -11 -11 -11 -11 -11 -11 -11 -11 -11 -11 -12 -12 -12 -12 -12 -12 -12 -12 -12 -12 -12 -13 -13 -13 -13 -13 -14 -14 -14 -15 -14 -14 -13 -14 -14 -14 -14 -14 -14 -14 -14
-11 -12 -12 -12 -12 -12 -12 -11 -11 -12 -12 -12 -12 -12 -12 -12 -12 -12 -12 -12 -13 -13 -13 -13 -13 -14 -14 -14 -14 -14 -14 -15 -15 -14 -15 -14 -14 -14 -14 -14 -14 -14 -14
-12 -12 -12 -12 -12 -12 -12 -12 -12 -12 -12 -12 -13 -13 -13 -13 -13 -13 -13 -13 -13 -13 -14 -14 -14 -14 -15 -15 -15 -15 -16 -16 -16 -16 -15 -16 -15 -14 -15 -15 -15 -15 -14
-12 -12 -12 -12 -12 -12 -12 -12 -12 -13 -13 -13 -13 -13 -13 -14 -14 -14 -14 -14 -14 -14 -15 -15 -15 -15 -16 -16 -16 -17 -17 -17 -17 -16 -16 -15 -16 -15 -14 -15 -14 -14 -14
-12 -12 -13 -13 -13 -13 -13 -13 -13 -13 -13 -13 -14 -14 -14 -14 -14 -15 -15 -15 -15 -15 -16 -16 -16 -17 -17 -17 -18 -18 -18 -18 -17 -17 -17 -16 -17 -16 -15 -15 -16 -16 -15
-12 -13 -13 -13 -13 -13 -13 -13 -13 -13 -13 -14 -14 -14 -14 -15 -15 -15 -15 -15 -15 -16 -17 -17 -18 -19 -19 -19 -19 -19 -18 -18 -18 -18 -18 -18 -19 -18 -17 -17 -17 -16 -17
-13 -13 -13 -13 -14 -14 -14 -14 -14 -14 -14 -14 -15 -15 -15 -16 -16 -16 -16 -16 -16 -17 -18 -19 -19 -20 -20 -20 -20 -19 -19 -19 -19 -19 -19 -18 -18 -18 -18 -18 -18 -17 -17
-14 -14 -14 -14 -14 -14 -14 -14 -14 -14 -14 -15 -15 -15 -16 -16 -16 -16 -16 -17 -18 -19 -20 -20 -21 -21 -21 -21 -21 -20 -20 -20 -20 -21 -20 -18 -19 -19 -19 -18 -19 -19 -18
-14 -14 -14 -14 -14 -14 -14 -14 -15 -15 -15 -15 -16 -16 -17 -17 -17 -17 -17 -18 -20 -21 -21 -21 -22 -22 -22 -22 -22 -21 -22 -22 -21 -22 -22 -22 -21 -21 -21 -21 -20 -19 -20
-15 -14 -14 -14 -14 -14 -15 -15 -15 -15 -16 -16 -17 -17 -17 -17 -17 -18 -19 -20 -21 -22 -22 -22 -22 -22 -23 -23 -22 -22 -22 -22 -22 -22 -22 -22 -22 -22 -21 -21 -20 -19 -20
-15 -15 -14 -15 -15 -15 -15 -15 -16 -16 -16 -17 -17 -18 -18 -18 -18 -19 -20 -21 -22 -22 -23 -22 -22 -22 -23 -23 -23 -22 -22 -22 -22 -22 -22 -22 -22 -22 -21 -22 -21 -20 -19
-15 -15 -15 -15 -15 -16 -16 -16 -17 -17 -17 -18 -18 -18 -19 -19 -20 -21 -22 -22 -22 -23 -22 -22 -22 -22 -22 -23 -23 -23 -22 -22 -22 -22 -22 -21 -22 -22 -22 -22 -21 -21 -20
-15 -15 -16 -16 -16 -16 -17 -17 -17 -18 -18 -19 -19 -19 -19 -20 -21 -22 -23 -23 -23 -23 -23 -22 -22 -22 -22 -23 -23 -23 -23 -23 -22 -22 -22 -22 -22 -22 -22 -21 -21 -21 -21
-15 -16 -16 -17 -17 -17 -18 -18 -19 -19 -19 -19 -19 -20 -21 -22 -22 -23 -23 -23 -23 -23 -23 -23 -23 -22 -23 -23 -23 -23 -23 -22 -22 -22 -22 -22 -22 -22 -22 -22 -21 -21 -21
-16 -17 -17 -18 -18 -18 -19 -19 -20 -20 -20 -20 -20 -22 -22 -23 -23 -24 -24 -24 -23 -23 -23 -22 -22 -22 -23 -23 -23 -23 -23 -22 -22 -22 -22 -22 -22 -22 -22 -22 -22 -22 -21
-17 -18 -18 -18 -19 -19 -20 -20 -20 -20 -20 -21 -22 -23 -23 -24 -24 -24 -24 -24 -24 -23 -23 -22 -23 -23 -23 -23 -23 -23 -23 -23 -22 -22 -22 -22 -22 -22 -22 -22 -22 -21 -21
-18 -18 -19 -19 -20 -20 -20 -20 -20 -21 -22 -23 -23 -24 -24 -24 -24 -24 -24 -24 -24 -23 -23 -23 -23 -23 -23 -23 -23 -23 -23 -23 -23 -22 -22 -22 -22 -22 -22 -22 -22 -22 -22
-19 -19 -20 -21 -20 -20 -21 -21 -22 -23 -23 -24 -24 -24 -24 -25 -25 -25 -25 -24 -24 -23 -23 -23 -23 -23 -23 -23 -23 -23 -23 -23 -23 -23 -23 -23 -23 -22 -22 -22 -22 -22 -22
-19 -21 -21 -21 -21 -21 -22 -23 -24 -25 -25 -25 -24 -24 -25 -25 -25 -25 -25 -24 -24 -23 -23 -23 -23 -23 -23 -23 -23 -23 -23 -23 -23 -23 -23 -23 -23 -23 -23 -23 -23 -23 -23
-21 -21 -21 -21 -22 -23 -23 -24 -25 -25 -25 -25 -25 -25 -25 -25 -24 -24 -25 -24 -24 -24 -23 -23 -23 -23 -23 -23 -23 -24 -24 -24 -24 -23 -23 -23 -23 -23 -23 -23 -23 -23 -23
-22 -22 -22 -23 -24 -24 -25 -26 -26 -26 -25 -25 -25 -25 -25 -25 -24 -24 -24 -24 -24 -24 -23 -23 -23 -23 -23 -23 -23 -24 -24 -24 -24 -23 -23 -23 -23 -23 -23 -23 -23 -23 -23
-23 -23 -24 -24 -25 -25 -26 -26 -26 -26 -26 -26 -26 -26 -25 -25 -25 -24 -24 -24 -24 -24 -24 -23 -23 -24 -23 -23 -23 -24 -24 -24 -24 -24 -24 -24 -23 -23 -23 -23 -23 -23 -23
-24 -25 -25 -26 -26 -26 -26 -26 -26 -26 -26 -26 -26 -26 -25 -25 -25 -25 -25 -24 -24 -24 -24 -24 -24 -24 -24 -24 -24 -24 -24 -24 -24 -24 -24 -24 -24 -24 -24 -24 -24 -24 -24
Height
5836 5835 5833 5831 5829 5827 5825 5823 5822 5819 5817 5814 5812 5810 5809 5807 5805 5803 5800 5799 5797 5794 5792 5790 5788 5785 5784 5783 5781 5781 5781 5781 5782 5782 5782 5784 5786 5785 5785 5786 5787 5788 5789
5832 5830 5828 5826 5824 5822 5821 5819 5817 5815 5813 5811 5809 5806 5803 5801 5798 5796 5794 5792 5789 5787 5785 5783 5780 5778 5775 5773 5772 5772 5771 5770 5771 5772 5772 5772 5775 5775 5776 5777 5777 5778 5779
5826 5825 5823 5821 5819 5817 5815 5813 5811 5810 5807 5805 5801 5799 5795 5792 5790 5788 5785 5783 5780 5779 5776 5773 5771 5769 5766 5764 5762 5761 5760 5760 5760 5761 5760 5762 5763 5764 5765 5766 5767 5767 5769
5820 5818 5817 5815 5812 5811 5809 5807 5805 5803 5801 5797 5794 5791 5787 5784 5781 5778 5775 5772 5770 5768 5765 5761 5760 5758 5755 5753 5751 5750 5750 5751 5751 5752 5751 5751 5752 5753 5753 5755 5756 5759 5760
5814 5812 5810 5808 5806 5804 5802 5799 5796 5794 5791 5787 5784 5780 5777 5773 5771 5767 5764 5761 5758 5755 5752 5750 5747 5745 5743 5741 5739 5738 5737 5739 5739 5738 5739 5740 5739 5740 5741 5743 5746 5747 5747
5807 5805 5802 5800 5798 5795 5792 5790 5787 5784 5781 5778 5775 5771 5768 5765 5760 5757 5754 5750 5746 5742 5739 5736 5734 5732 5729 5727 5726 5725 5724 5726 5727 5726 5724 5726 5727 5728 5728 5727 5729 5733 5736
5798 5796 5794 5791 5789 5786 5783 5780 5778 5774 5771 5768 5765 5762 5758 5754 5750 5747 5742 5738 5733 5728 5724 5721 5718 5716 5714 5712 5712 5712 5712 5713 5715 5715 5713 5714 5715 5715 5717 5718 5718 5721 5725
5790 5787 5784 5782 5779 5776 5774 5771 5767 5764 5760 5757 5753 5749 5745 5742 5737 5733 5728 5723 5719 5714 5709 5705 5703 5700 5699 5698 5697 5698 5699 5700 5701 5703 5704 5703 5702 5704 5705 5707 5708 5711 5714
5780 5777 5775 5772 5769 5766 5763 5760 5756 5752 5749 5745 5740 5736 5732 5727 5722 5718 5713 5708 5703 5698 5693 5690 5687 5686 5685 5685 5685 5686 5688 5687 5688 5689 5691 5692 5693 5695 5697 5699 5699 5702 5705
5769 5767 5764 5761 5758 5754 5751 5747 5743 5740 5736 5732 5727 5722 5718 5713 5708 5703 5697 5691 5687 5682 5678 5675 5674 5673 5672 5672 5673 5674 5675 5676 5677 5677 5680 5682 5683 5686 5687 5690 5690 5693 5696
5757 5755 5752 5749 5746 5742 5738 5734 5731 5727 5723 5718 5713 5708 5703 5698 5692 5686 5680 5676 5669 5666 5664 5662 5661 5661 5660 5660 5661 5662 5664 5664 5664 5666 5667 5672 5673 5672 5676 5678 5681 5684 5687
5745 5742 5739 5736 5733 5729 5726 5722 5717 5713 5708 5703 5698 5694 5688 5682 5676 5669 5662 5658 5655 5652 5651 5650 5650 5649 5649 5650 5651 5651 5652 5653 5654 5655 5659 5663 5664 5665 5668 5670 5672 5676 5678
5732 5729 5726 5722 5719 5715 5711 5707 5703 5698 5693 5688 5683 5678 5672 5665 5659 5652 5647 5643 5641 5640 5639 5638 5638 5638 5638 5640 5641 5642 5642 5644 5645 5646 5649 5654 5657 5657 5660 5664 5666 5668 5671
5718 5716 5712 5709 5705 5702 5697 5693 5688 5683 5678 5672 5667 5661 5655 5648 5641 5636 5632 5630 5629 5628 5628 5628 5627 5627 5628 5629 5631 5633 5634 5635 5636 5638 5640 5642 5647 5650 5652 5655 5657 5660 5662
5704 5701 5697 5693 5690 5686 5682 5677 5672 5667 5661 5656 5651 5644 5637 5631 5625 5620 5618 5617 5617 5617 5617 5617 5617 5618 5618 5620 5622 5623 5626 5627 5629 5630 5632 5633 5635 5639 5643 5647 5649 5651 5653
5688 5685 5681 5678 5674 5670 5665 5660 5655 5649 5644 5639 5633 5627 5620 5614 5610 5607 5605 5605 5606 5607 5607 5607 5608 5609 5609 5611 5613 5615 5617 5619 5620 5622 5623 5625 5627 5630 5633 5637 5639 5642 5643
5673 5669 5665 5661 5657 5653 5647 5642 5637 5632 5627 5622 5616 5611 5605 5600 5596 5594 5593 5594 5595 5596 5597 5597 5598 5600 5601 5602 5604 5605 5606 5609 5610 5612 5613 5616 5619 5622 5625 5627 5629 5632 5635
5657 5652 5647 5643 5639 5635 5630 5626 5621 5616 5611 5606 5600 5595 5590 5587 5584 5582 5582 5583 5585 5586 5587 5588 5590 5592 5594 5595 5597 5597 5597 5599 5601 5603 5605 5607 5609 5612 5614 5617 5618 5621 5624
5641 5636 5632 5627 5623 5618 5613 5609 5605 5601 5596 5590 5585 5581 5577 5575 5573 5572 5572 5573 5575 5577 5579 5580 5582 5585 5588 5589 5590 5590 5590 5591 5591 5593 5596 5598 5600 5602 5605 5606 5609 5610 5612
5623 5619 5615 5611 5606 5602 5598 5593 5589 5584 5580 5576 5572 5569 5566 5563 5562 5561 5563 5565 5566 5568 5571 5572 5575 5578 5581 5582 5583 5583 5584 5584 5584 5585 5587 5588 5590 5591 5594 5595 5597 5598 5600
5606 5602 5598 5595 5590 5587 5582 5577 5573 5570 5566 5564 5560 5557 5555 5553 5551 5551 5553 5556 5557 5560 5562 5563 5567 5571 5574 5575 5577 5577 5577 5578 5578 5579 5580 5580 5582 5584 5584 5585 5586 5587 5589
5589 5585 5582 5579 5576 5570 5565 5562 5559 5557 5556 5553 5550 5547 5545 5543 5542 5542 5543 5547 5549 5551 5554 5556 5560 5564 5567 5569 5570 5570 5571 5572 5573 5573 5573 5575 5575 5576 5577 5578 5578 5580 5581
5573 5570 5566 5562 5557 5554 5552 5551 5549 5548 5546 5543 5541 5538 5536 5535 5532 5534 5535 5538 5541 5544 5546 5550 5554 5558 5561 5563 5564 5565 5566 5567 5567 5568 5568 5568 5568 5569 5569 5570 5571 5572 5572
5558 5553 5548 5545 5543 5543 5542 5541 5539 5538 5536 5534 5531 5529 5528 5527 5524 5526 5528 5531 5533 5536 5540 5544 5548 5552 5555 5556 5558 5559 5561 5561 5562 5562 5561 5561 5562 5562 5562 5563 5563 5564 5565
5539 5537 5536 5535 5534 5533 5532 5531 5530 5528 5527 5524 5523 5522 5522 5521 5519 5520 5521 5524 5527 5531 5534 5538 5542 5546 5548 5550 5552 5553 5555 5555 5555 5555 5555 5555 5555 5555 5556 5556 5557 5557 5557
5529 5526 5526 5525 5524 5524 5522 5522 5520 5518 5516 5515 5514 5516 5516 5517 5516 5515 5517 5519 5522 5525 5529 5533 5537 5540 5542 5544 5546 5547 5548 5549 5548 5548 5548 5549 5549 5549 5549 5550 5550 5550 5550
Wind_Speed
22 25 29 25 23 23 23 24 26 27 30 32 33 33 35 37 39 42 43 42 42 42 42 43 43 41 37 41 45 45 44 46 47 47 51 48 47 44 43 43 44 43 41
23 24 31 24 25 26 25 27 27 30 29 29 30 33 35 35 37 40 41 44 47 48 47 47 47 47 44 41 42 47 47 47 49 49 46 50 48 50 50 48 49 46 43
27 28 29 28 27 29 29 30 29 30 31 32 32 35 36 39 40 42 44 46 48 49 50 52 52 51 50 47 46 48 50 45 49 49 37 44 48 50 53 50 40 41 44
31 31 29 32 31 31 33 32 32 32 35 36 39 41 40 41 42 44 45 48 50 53 55 54 55 57 57 53 50 49 50 49 45 57 53 54 48 47 51 48 43 40 46
32 35 34 35 35 35 35 35 34 36 38 40 43 44 42 42 43 45 46 48 50 53 56 57 58 57 57 58 55 54 55 51 55 53 49 53 55 47 41 51 48 45 42
37 37 37 37 39 39 39 38 37 41 42 44 45 45 46 47 47 48 48 48 50 52 55 58 59 59 60 59 57 58 57 51 46 47 51 45 47 49 30 41 43 42 51
42 42 40 40 43 44 43 43 43 46 46 47 49 49 49 51 51 51 50 50 51 55 59 60 61 62 61 60 59 58 55 49 46 41 49 47 53 51 54 54 46 42 42
47 44 43 44 45 46 47 48 49 50 52 51 52 53 54 54 53 55 52 51 52 57 60 61 61 59 58 57 57 55 50 48 48 51 51 57 44 48 54 62 45 43 43
49 46 45 46 48 50 52 53 54 55 55 54 56 56 58 57 55 54 53 53 56 59 61 59 57 56 54 52 50 49 49 45 48 49 52 46 37 38 33 34 32 37 34
48 47 47 49 51 53 54 56 58 57 57 58 60 59 61 59 58 55 55 57 59 60 57 55 53 51 49 45 45 46 47 44 44 41 40 45 34 35 36 30 28 32 32
49 49 50 52 54 56 58 57 58 59 60 62 62 60 61 61 61 57 56 59 60 54 49 48 48 45 42 41 41 42 41 42 43 40 31 40 38 38 39 39 33 34 33
51 51 52 53 56 58 59 60 59 61 63 64 63 61 63 62 62 59 61 61 55 46 45 45 43 40 39 39 39 38 39 42 42 37 36 37 37 39 39 36 37 38 31
53 52 52 56 59 60 60 61 62 65 65 63 61 61 65 64 64 61 61 57 48 43 42 41 39 38 38 38 39 41 43 42 35 34 35 37 35 36 39 38 41 43 38
55 56 58 59 60 61 62 62 65 65 63 61 61 63 67 64 61 60 56 50 43 42 40 40 37 39 42 43 44 44 41 38 39 39 38 37 35 38 37 40 41 43 49
60 61 62 62 61 62 62 63 64 63 63 62 63 67 62 60 58 54 49 44 41 38 42 36 38 34 39 43 44 43 43 39 39 42 40 40 38 40 36 37 39 39 41
64 63 64 65 64 63 62 63 63 63 64 65 68 65 60 57 53 48 43 39 39 36 38 37 35 37 34 34 40 42 43 42 43 44 40 40 35 35 36 47 38 36 40
66 66 68 68 66 65 64 65 67 68 69 69 67 60 54 50 47 41 38 37 36 41 36 34 30 28 23 23 28 33 37 37 35 39 42 43 44 39 37 36 43 43 41
68 67 69 69 69 68 67 69 72 73 72 68 60 51 45 43 39 35 37 42 41 34 35 27 24 21 21 23 25 27 28 34 36 35 36 37 35 44 37 38 37 40 42
66 66 68 68 71 70 70 72 73 71 66 58 49 42 40 38 35 33 35 31 38 32 28 27 19 21 22 23 24 25 26 28 28 34 41 43 42 41 41 44 47 49 49
62 64 66 70 69 71 73 70 67 62 54 46 40 39 38 36 33 33 32 27 29 32 31 28 21 22 22 22 22 22 22 23 24 27 30 31 34 39 41 44 47 47 48
65 65 67 67 69 76 70 64 59 49 43 38 35 36 35 33 33 35 36 32 29 29 29 24 25 22 21 21 22 20 20 21 23 24 25 26 28 29 30 33 34 36 38
68 65 67 73 72 65 58 51 41 36 34 34 34 33 30 30 31 31 33 32 32 27 31 28 29 22 21 23 22 20 20 21 23 23 22 22 24 26 27 29 29 30 31
64 69 71 72 62 55 47 40 34 34 32 33 33 30 29 30 29 27 26 27 29 30 36 32 25 22 22 22 21 20 20 21 20 21 22 23 24 25 26 28 29 29 30
69 69 61 54 47 44 38 33 33 31 31 33 31 29 27 26 24 24 25 27 28 32 33 26 25 23 23 22 20 20 21 22 20 20 21 21 22 24 24 25 26 26 27
62 55 47 42 38 34 33 32 31 30 31 31 28 26 22 21 17 19 21 24 26 27 26 25 23 22 22 20 19 21 22 22 22 21 20 21 22 23 22 22 22 22 22
44 40 35 31 32 31 30 29 30 33 33 30 26 24 20 17 13 14 19 20 20 20 20 19 20 21 20 18 19 22 21 21 20 19 21 21 21 20 20 20 20 20 21
Wind_Direction
320 322 329 323 313 314 317 323 319 320 324 323 318 310 305 305 305 302 302 298 299 298 297 296 296 294 284 277 276 276 276 272 270 265 262 258 259 254 256 259 257 252 252
313 315 321 315 310 311 309 312 314 319 322 320 320 317 309 305 301 297 295 293 295 294 290 290 290 288 286 282 275 273 273 272 270 270 264 260 253 254 257 258 255 252 252
311 308 315 314 311 309 307 307 310 313 317 314 318 312 307 299 296 296 296 295 292 288 286 287 286 284 283 281 278 274 274 276 271 261 249 257 255 256 253 250 251 254 249
311 308 303 307 305 306 304 304 308 311 310 310 312 312 308 299 298 297 295 293 292 291 290 286 281 279 279 279 274 267 269 266 265 250 256 252 246 250 249 247 246 249 250
310 307 301 301 299 303 304 301 302 306 308 307 310 312 305 298 295 294 292 291 291 289 287 284 281 278 277 274 272 266 264 264 259 257 262 250 245 241 256 249 249 243 241
310 306 302 298 298 301 301 299 298 303 304 305 307 309 306 300 296 294 293 292 289 286 285 281 277 275 275 273 268 266 264 266 264 263 264 263 254 237 234 222 233 237 241
307 304 299 298 300 301 300 299 297 301 303 303 306 305 304 300 297 295 296 294 288 283 281 279 277 276 275 271 268 266 264 260 254 254 249 253 259 257 236 235 242 246 245
302 299 296 297 299 299 298 299 298 299 301 301 303 302 303 300 298 297 297 293 287 281 279 279 279 277 273 269 269 268 262 260 255 250 255 256 242 251 255 254 249 253 252
295 294 294 296 298 298 297 298 298 298 299 298 300 299 301 300 301 300 297 292 285 281 280 279 277 275 273 271 269 265 262 260 256 253 254 263 247 252 260 258 245 243 254
290 291 293 295 295 295 295 297 297 295 296 297 297 296 301 302 304 304 295 289 284 282 281 279 276 274 272 269 265 261 258 256 255 254 254 245 235 238 241 243 241 247 238
288 290 292 294 295 295 296 295 295 295 297 298 297 297 302 304 306 305 296 287 284 283 279 275 274 273 272 267 263 259 253 252 252 246 248 249 236 252 246 247 253 252 248
287 290 292 295 295 296 296 296 296 297 297 296 296 298 304 306 310 301 291 288 286 279 273 273 273 273 269 264 258 251 249 248 250 242 245 250 248 245 253 254 253 254 253
287 288 291 292 293 294 294 294 294 295 296 297 297 301 307 307 307 294 289 287 282 274 272 272 270 271 262 257 252 248 248 251 247 244 241 241 242 245 248 251 253 252 248
287 290 291 292 292 293 294 294 295 295 297 298 300 303 308 308 297 289 286 283 276 270 270 268 271 270 262 259 254 257 252 247 241 243 240 234 240 247 247 251 256 259 260
289 290 290 291 292 293 295 295 295 296 299 299 301 308 306 295 289 286 284 279 269 266 273 287 270 281 279 268 256 259 257 256 251 252 250 246 243 243 247 250 254 261 260
289 288 290 291 293 294 295 296 298 299 300 302 305 306 296 291 288 284 279 273 267 268 270 269 274 278 279 277 268 264 259 261 264 255 252 249 245 252 257 247 247 255 259
289 290 289 290 292 294 296 298 298 299 301 303 305 297 293 290 286 280 273 264 262 265 269 262 259 265 267 266 259 254 252 253 260 256 253 251 248 247 253 257 252 250 257
289 289 286 288 291 293 295 297 296 298 301 305 298 293 290 287 283 276 263 258 268 263 259 252 247 254 260 258 258 258 258 259 256 247 257 262 258 245 244 249 252 254 251
287 284 285 286 289 291 293 294 296 300 303 299 294 291 289 286 280 270 266 264 259 255 253 252 238 243 252 257 260 263 262 262 261 254 252 255 257 256 256 256 257 259 260
281 277 283 287 290 289 290 295 299 301 297 293 292 291 286 283 273 260 253 260 259 241 253 241 228 235 251 257 259 257 260 261 258 256 255 257 254 255 259 260 259 260 261
279 278 283 287 283 285 293 298 297 294 292 291 287 286 284 276 270 261 255 257 259 240 248 223 221 232 247 254 253 266 266 267 263 261 258 257 257 260 263 264 264 262 262
279 282 286 286 285 290 295 295 291 284 285 286 288 288 279 279 275 265 252 248 249 252 231 215 219 230 241 250 261 268 262 261 265 263 263 266 266 263 262 263 263 264 263
282 280 281 286 291 294 295 288 278 279 285 288 288 282 276 280 272 260 251 244 244 245 230 220 221 231 239 252 264 263 261 259 260 264 264 265 265 265 264 263 263 264 264
276 281 287 291 293 290 283 272 273 277 284 289 284 274 272 284 268 248 244 244 242 235 223 220 221 231 243 253 264 260 260 260 262 266 264 264 265 263 264 264 264 264 265
285 287 288 287 283 279 275 273 276 279 285 287 278 272 269 283 267 242 241 234 230 228 226 220 222 235 248 253 258 258 259 261 267 270 267 270 268 268 266 265 266 267 270
282 281 280 282 280 280 278 278 280 282 281 278 269 263 258 267 270 238 229 225 222 219 219 223 231 242 250 252 254 255 258 264 270 267 272 271 269 266 266 266 270 273 275